星链-11290 (STARLINK-11290)

导读 | 豆包AI

STARLINK-11290是美国SpaceX星链星座的卫星,于2024年9月5日发射入轨,属于星链低轨互联网星座的扩容组网卫星。星链星座旨在为全球提供覆盖偏远地区的高速卫星互联网服务,该卫星延续星链设计,依托低轨部署降低通信延迟,服务全球用户接入需求。

基本信息
目录编号:
61000
目录名称:
STARLINK-11290
国际标识:
2024-158L
轨道中心:
EARTH
卫星名称:
星链-11290
卫星全名:
星链-11290 (STARLINK-11290)
卫星状态:
在轨 (已飞行556 天)
发射日期:
2024-09-05 UTC
国别 :
美国 (US)
星等 :
--
轨道信息
数据来源 国际轨道数据
星历时间: 2026-03-15T13:22:32+0800
7小时前
查看轨道信息
半长轴: 6737.91km
偏心率: 0.0001646
轨道倾角: 53.159°
近地点辐角 101.491°
升交点赤经 253.992°
平近点角 258.629°
近地点: 358.663km
远地点: 360.883km
周期: 91.738分钟
每日圈数: 15.696941
详细信息
固有亮度:
5
最大亮度:
2.5
卫星平台:
Starlink V1.0
覆盖范围:
全球
运营商:
太空探索技术公司
运营商所在国:
美国
制造商(研发单位):
太空探索技术公司
制造商所在国:
美国
使用方式:
暂无
卫星简介
Starlink 计划是 SpaceX 推出的全球卫星互联网项目,通过发射低轨道卫星,为全球尤其是偏远地区提供高速、低延迟的互联网服务。自 2019 年起,Starlink 已部署数千颗卫星,旨在缩小全球数字鸿沟,推动互联网普及。该项目还为军事、航空等行业提供通信支持,带来广泛经济效益。
2D轨道图
3D轨道图
轨道高度分析图
轨道倾角分析图
轨道综合分析图
查看轨道综合分析图